Weather History for Lincoln, NE

Change the Weather History Date:

Wednesday, May 14, 2014

  Actual Average Record
Temperature  
Mean Temperature 54 °F 62 °F  
Max Temperature 71 °F 74 °F 100 °F (2013)
Min Temperature 37 °F 50 °F 32 °F (1907)
Degree Days  
Heating Degree Days 11 5  
Month to date heating degree days 75 95  
Since 1 July heating degree days 6423 5988  
Cooling Degree Days 0 2  
Month to date cooling degree days 30 17  
Year to date cooling degree days 45 31  
Growing Degree Days 4 (Base 50)    
Moisture  
Dew Point 35 °F    
Average Humidity 57    
Maximum Humidity 92    
Minimum Humidity 22    
Precipitation  
Precipitation 0.00 in 0.14 in 2.63 in (1909)
Month to date precipitation 3.33 1.94  
Year to date precipitation 7.82 7.99  
Snow  
Snow 0.00 in 0.00 in - ()
Month to date snowfall 0.0 0.1  
Since 1 July snowfall 18.2 26.0  
Snow Depth 0.00 in    
Sea Level Pressure  
Sea Level Pressure 30.23 in    
Wind  
Wind Speed 8 mph (NW)    
Max Wind Speed 26 mph    
Max Gust Speed 32 mph    
Visibility 10 miles    
Events      
T = Trace of Precipitation, MM = Missing Value Source: NWS Daily Summary

Daily Weather History Graph

Daily Weather History Graph

Search for Another Location

Airport:

Trip Planner

Search our weather history database for the weather conditions in past years. The results will help you decide how hot, cold, wet, or windy it might be!

Date:

Astronomy

May. 14, 2014 Rise Set
Actual Time 6:10 AM CDT 8:36 PM CDT
Civil Twilight 5:39 AM CDT 9:07 PM CDT
Nautical Twilight 5:01 AM CDT 9:46 PM CDT
Astronomical Twilight 4:18 AM CDT 10:29 PM CDT
Moon 8:43 PM CDT (5/14) 6:10 AM CDT (5/14)
Length of Visible Light 15h 28m
Length of Day
14h 26m
Full, 100% of the Moon is Illuminated
May 14
Full
May 14
Full
May 21
Last Quarter
May 28
New
Jun 5
First Quarter

Hourly Weather History & Observations

Time (CDT) Temp. Windchill Dew Point Humidity Pressure Visibility Wind Dir Wind Speed Gust Speed Precip Events Conditions
12:54 AM 43.0 °F 41.3 °F 37.0 °F 80% 30.32 in 10.0 mi NNW 3.5 mph - N/A   Clear
1:54 AM 43.0 °F - 36.0 °F 76% 30.33 in 10.0 mi Calm Calm - N/A   Clear
2:54 AM 41.0 °F - 36.0 °F 82% 30.32 in 10.0 mi Calm Calm - N/A   Clear
3:54 AM 42.1 °F - 35.1 °F 76% 30.31 in 10.0 mi Calm Calm - N/A   Clear
4:54 AM 42.1 °F 40.2 °F 34.0 °F 73% 30.30 in 10.0 mi West 3.5 mph - N/A   Clear
5:54 AM 37.9 °F - 34.0 °F 86% 30.32 in 10.0 mi Calm Calm - N/A   Clear
6:54 AM 37.9 °F - 35.1 °F 89% 30.31 in 9.0 mi Calm Calm - N/A   Clear
7:54 AM 43.0 °F 41.3 °F 37.0 °F 80% 30.31 in 10.0 mi WSW 3.5 mph - N/A   Clear
8:54 AM 50.0 °F - 39.9 °F 68% 30.31 in 10.0 mi Calm Calm - N/A   Clear
9:54 AM 57.2 °F - 37.4 °F 48% 30.30 in 10.0 mi West 6.9 mph - N/A   Clear
10:54 AM 61.0 °F - 32.0 °F 34% 30.28 in 10.0 mi West 8.1 mph - N/A   Clear
11:54 AM 64.9 °F - 33.1 °F 31% 30.25 in 10.0 mi West 8.1 mph - N/A   Clear
12:54 PM 66.0 °F - 30.9 °F 27% 30.21 in 10.0 mi NNW 4.6 mph - N/A   Partly Cloudy
1:54 PM 69.1 °F - 30.0 °F 23% 30.19 in 10.0 mi North 6.9 mph - N/A   Clear
2:54 PM 68.0 °F - 28.9 °F 23% 30.17 in 10.0 mi North 6.9 mph - N/A   Mostly Cloudy
3:54 PM 71.1 °F - 30.9 °F 23% 30.14 in 10.0 mi WNW 8.1 mph - N/A   Mostly Cloudy
4:54 PM 66.0 °F - 30.9 °F 27% 30.13 in 10.0 mi NNW 21.9 mph 28.8 mph N/A   Mostly Cloudy
5:01 PM 64.4 °F - 35.6 °F 34% 30.13 in 10.0 mi NNW 23.0 mph 32.2 mph N/A   Mostly Cloudy
5:54 PM 60.1 °F - 37.0 °F 42% 30.17 in 10.0 mi West 15.0 mph - N/A   Overcast
6:54 PM 64.0 °F - 37.0 °F 37% 30.14 in 10.0 mi WNW 8.1 mph - N/A   Scattered Clouds
7:54 PM 60.1 °F - 36.0 °F 41% 30.15 in 10.0 mi North 15.0 mph 26.5 mph N/A   Clear
8:54 PM 53.1 °F - 39.0 °F 59% 30.16 in 10.0 mi North 8.1 mph - N/A   Mostly Cloudy
9:54 PM 57.0 °F - 37.9 °F 49% 30.17 in 10.0 mi NNW 9.2 mph - N/A   Mostly Cloudy
10:54 PM 55.0 °F - 33.1 °F 43% 30.18 in 10.0 mi NNW 18.4 mph - N/A   Clear
11:54 PM 52.0 °F - 32.0 °F 47% 30.19 in 10.0 mi North 16.1 mph - N/A   Clear